FENGYUN 1C DEB

Satellite information

Favourite Embed

Satellite Type and Status

DEBRISIN ORBIT

Key statistics

Satellite FENGYUN 1C DEB at a glance.

Uptime

9715

Days in orbit

Revolutions

≈ 14.4

Per day

Orbit

SSO

Sun Synchronous Orbit

Inclination

98.2

Latest

Satellite identification and parameters

Extended collection of information and parameters for FENGYUN 1C DEB.

Object identification

Identified? True

Debris? True

Object name: FENGYUN 1C DEB

International designator: 1999-025DZR

Object number (NORAD): 36695

Object ID (CCSDS): 36695

Country: PEOPLES REPUBLIC OF CHINA (PRC)

Current information (Y/N): Y

RCS size: SMALL

Orbital parameters

Period: 99.74 minutes

Inclination: 98.2216 deg

SMA: 7124.279 km

Apoapsis: 929.55 km

Periapsis: 562.737 km

RAAN: 328.5544 deg

Eccentricy: 0.02574386

Argument of periapsis: 128.8731 deg

Mean anomaly: 233.5735 deg

Mean motion: 14.43748068 rev/day

Mean motion (dot): 0.00001257 rev/day2

B* drag term: 0.00025691946 1/REarth

Two-line elements (TLE)

Creation date: Dec. 13, 2025, 5:47 p.m.

Reference frame: TEME

Reference center: EARTH

Epoch: Dec. 13, 2025, 5:37 a.m. UTC

TLE line 0: 0 FENGYUN 1C DEB

TLE line 1: 1 36695U 99025DZR 25347.23420879 .00001257 00000-0 25692-3 0 9992

TLE line 2: 2 36695 98.2216 328.5544 0257439 128.8731 233.5735 14.43748068895757

Live tracking on map

Real-time ground track for satellite FENGYUN 1C DEB.

In-orbit conjunctions

A list of the most updated potential collisions computed for object FENGYUN 1C DEB.

Target Orbit TCA Probability of collision Miss distance Type
FENGYUN 1C DEB SSO 2025-12-13 08:45:29 0.0002956942 241.0 (m) DEBRIS
OBJECT U SSO 2025-11-20 16:12:47 0.0001833415 428.0 (m) UNKNOWN
PSLV R/B SSO 2025-09-09 15:21:20 0.0003540192 925.0 (m) ROCKET BODY

Associated space launch

Chinese polar orbiting meteorological satellite

FENGYUN 1C DEB was lifted into orbit during the mission ‘Long March 4B | Feng Yun 1C’, on board a Long March 4B space rocket.

The launch took place on May 10, 1999, 1:33 a.m. from Launch Complex 7.

For more information about the launch, click the button.

Launch to space Long March 4B | Feng Yun 1C
Long March 4B | Feng Yun 1C

Agency: N/A

Status: Launch Successful

Launch date: May 10, 1999, 1:33 a.m. UTC

Rocket: Long March 4B

Launch pad: Launch Complex 7

Location: Taiyuan Satellite Launch Center, People's Republic of China

...

Latest news about this satellite

There are no fresh news available about this satellite. Check back as we update our databases every day.


Newsletter sign-up

Weekly statistics, charts and insights to help you stay on top of the space industry.